Change the Weather History Date:

Wednesday, December 11, 2013

  Actual Average Record
Temperature  
Mean Temperature 35 °F -  
Max Temperature 38 °F 43 °F 54 °F (2014)
Min Temperature 32 °F 34 °F 23 °F (2000)
Degree Days  
Heating Degree Days 30    
Moisture  
Dew Point 31 °F    
Average Humidity 86    
Maximum Humidity 100    
Minimum Humidity 70    
Precipitation  
Precipitation 0.00 in - - ()
Sea Level Pressure  
Sea Level Pressure 30.33 in    
Wind  
Wind Speed 4 mph ()    
Max Wind Speed 8 mph    
Max Gust Speed -    
Visibility 15.9 miles    
Events      
Averages and records for this station are not official NWS values.
T = Trace of Precipitation, MM = Missing Value Source: Averaged Metar Reports

Daily Weather History Graph

Daily Weather History Graph

Search for Another Location

Airport or City:

Trip Planner

Search our weather history database for the weather conditions in past years. The results will help you decide how hot, cold, wet, or windy it might be!

Date:

Astronomy

Dec. 11, 2013 Rise Set
Actual Time 7:57 AM PST 4:14 PM PST
Civil Twilight 7:20 AM PST 4:51 PM PST
Nautical Twilight 6:39 AM PST 5:32 PM PST
Astronomical Twilight 6:01 AM PST 6:11 PM PST
Moon 1:13 PM PST (12/11) 2:00 AM PST (12/11)
Length of Visible Light 9h 31m
Length of Day
8h 16m
Waxing Gibbous, 72% of the Moon is Illuminated
Dec 11
Waxing Gibbous
Dec 17
Full
Dec 25
Last Quarter
Jan 1
New
Jan 7
First Quarter

Hourly Weather History & Observations

Time (PST) Temp. Windchill Dew Point Humidity Pressure Visibility Wind Dir Wind Speed Gust Speed Precip Events Conditions
12:00 AM 33.8 °F 29.6 °F 32.0 °F 93% 30.45 in 15.0 mi East 4.6 mph - N/A   Overcast
1:00 AM 33.8 °F 30.8 °F 30.2 °F 87% 30.45 in 15.0 mi East 3.5 mph - N/A   Overcast
2:00 AM 32.0 °F 24.8 °F 30.2 °F 93% 30.42 in 15.0 mi East 8.1 mph - N/A   Mostly Cloudy
3:00 AM 32.0 °F 28.7 °F 30.2 °F 93% 30.42 in 15.0 mi ESE 3.5 mph - N/A   Overcast
4:00 AM 33 °F - 31 °F 89% 30.40 in 15 mi East 5.8 mph - -   Overcast
4:00 AM 32.0 °F 27.5 °F 30.2 °F 93% 30.40 in 15.0 mi East 4.6 mph - N/A   Overcast
5:00 AM 33.8 °F - 32.0 °F 93% 30.38 in 15.0 mi Calm Calm - N/A   Overcast
6:00 AM 32.0 °F - 32.0 °F 100% 30.38 in 15.0 mi Calm Calm - N/A   Overcast
7:00 AM 32.0 °F - 32.0 °F 100% 30.38 in 15.0 mi Calm Calm - N/A   Overcast
8:00 AM 33.8 °F 30.8 °F 32.0 °F 93% 30.38 in 15.0 mi SSE 3.5 mph - N/A   Overcast
9:00 AM 33.8 °F 29.6 °F 32.0 °F 93% 30.38 in 15.0 mi SE 4.6 mph - N/A   Overcast
10:00 AM 35 °F - 32 °F 86% 30.38 in 15 mi SSW 2.3 mph - -   Overcast
10:00 AM 35.6 °F - 32.0 °F 87% 30.38 in 15.0 mi Variable 2.3 mph - N/A   Overcast
11:00 AM 37.4 °F 31.4 °F 32.0 °F 81% 30.36 in 15.0 mi ESE 8.1 mph - N/A   Overcast
11:16 AM 35.6 °F 30.7 °F 32.0 °F 87% 30.35 in 15.0 mi East 5.8 mph - N/A   Overcast
12:00 PM 37.4 °F 34.9 °F 32.0 °F 81% 30.34 in 15.0 mi ESE 3.5 mph - N/A   Overcast
1:00 PM 39.2 °F 37.0 °F 32.0 °F 75% 30.32 in 20.0 mi ESE 3.5 mph - N/A   Overcast
2:00 PM 39.2 °F 34.2 °F 30.2 °F 70% 30.30 in 15.0 mi East 6.9 mph - N/A   Overcast
3:00 PM 37.4 °F 34.9 °F 32.0 °F 81% 30.29 in 20.0 mi East 3.5 mph - N/A   Overcast
3:46 PM 35.6 °F 30.7 °F 30.2 °F 81% 30.28 in 20.0 mi ESE 5.8 mph - N/A   Overcast
4:00 PM 36 °F - 31 °F 75% 30.28 in 19 mi ESE 5.8 mph - -   Overcast
4:00 PM 37.4 °F 32.8 °F 30.2 °F 75% 30.27 in 20.0 mi ESE 5.8 mph - N/A   Overcast
4:02 PM 35.6 °F 30.7 °F 32.0 °F 87% 30.27 in 20.0 mi ESE 5.8 mph - N/A   Overcast
5:00 PM 35.6 °F 32.8 °F 30.2 °F 81% 30.26 in 15.0 mi East 3.5 mph - N/A   Overcast
6:00 PM 35.6 °F 30.7 °F 32.0 °F 87% 30.26 in 15.0 mi East 5.8 mph - N/A   Overcast
7:00 PM 33.8 °F 28.6 °F 30.2 °F 87% 30.25 in 15.0 mi East 5.8 mph - N/A   Overcast
8:00 PM 33.8 °F 30.8 °F 30.2 °F 87% 30.24 in 15.0 mi East 3.5 mph - N/A   Overcast
9:00 PM 33.8 °F - 30.2 °F 87% 30.22 in 15.0 mi East 2.3 mph - N/A   Overcast
10:00 PM 34 °F - 30 °F 80% 30.22 in 15 mi East 1.2 mph - -   Overcast
10:00 PM 33.8 °F - 30.2 °F 87% 30.22 in 15.0 mi Calm Calm - N/A   Overcast
11:00 PM 33.8 °F 30.8 °F 30.2 °F 87% 30.19 in 15.0 mi East 3.5 mph - N/A   Overcast